Location: Basse Occidentale du Courleau
(48.3833°N, 4.8333°W)
Time: 09:40:36
(UTC+00:00)

Cosmos 2154 Rocket - Pass Details

Date: 05 July 2020
Orbit: 967 x 995 km, 82.9° (Epoch: 07 August)

Event Time Altitude Azimuth Distance (km) Brightness Sun altitude
Exits shadow 23:07:51 22° 189° (S) 1,973 5.1 -16.9°
Maximum altitude 23:12:03 87° 277° (W) 977 4.0 -17.1°
Drops below altitude 10° 23:18:19 10° 9° (N) 2,726 7.4 -17.4°
Sets 23:20:50 0° 10° (N) 3,681 8.2 -17.6°
